This is the latest recevied weather packets stored in our database for station/object IU3IOK-3. If no packets are shown the sender has not sent any weather packets the latest 1 day(s).
| Time | Temp. | Humidity | Pressure | Rain* | Wind** | Luminosity | Snow |
|---|---|---|---|---|---|---|---|
| 1778089301 | 18.33° C | 93% | 1009.2 hPa | - | - | - | - |
| 1778078501 | 18.33° C | 97% | 1009.2 hPa | - | - | - | - |
| 1778076701 | 18.33° C | 97% | 1009.4 hPa | - | - | - | - |
| 1778074001 | 18.89° C | 90% | 1009.9 hPa | - | - | - | - |
| 1778071301 | 18.89° C | 87% | 1010.2 hPa | - | - | - | - |
| 1778068601 | 18.89° C | 88% | 1010.3 hPa | - | - | - | - |
| 1778065001 | 18.33° C | 92% | 1010.8 hPa | - | - | - | - |
| 1778064101 | 18.33° C | 91% | 1010.9 hPa | - | - | - | - |
| 1778063201 | 18.33° C | 90% | 1010.9 hPa | - | - | - | - |
| 1778062301 | 18.33° C | 89% | 1011 hPa | - | - | - | - |
| 1778061401 | 18.33° C | 92% | 1011.1 hPa | - | - | - | - |
| 1778060501 | 18.33° C | 94% | 1011 hPa | - | - | - | - |
| 1778059601 | 18.33° C | 95% | 1011 hPa | - | - | - | - |
| 1778058701 | 18.33° C | 95% | 1010.9 hPa | - | - | - | - |
| 1778056901 | 18.33° C | 98% | 1010.6 hPa | - | - | - | - |
| 1778056001 | 18.33° C | 10% | - | - | - | - | - |
| 1778055101 | 17.78° C | 10% | - | - | - | - | - |
| 1778054201 | 17.78° C | 10% | - | - | - | - | - |
| 1778053301 | 17.22° C | 10% | - | - | - | - | - |
| 1778052401 | 17.22° C | 10% | - | - | - | - | - |
| 1778051501 | 16.67° C | 99% | 1010.6 hPa | - | - | - | - |
| 1778050601 | 16.67° C | 99% | 1010.7 hPa | - | - | - | - |
| 1778049701 | 16.67° C | 98% | 1010.7 hPa | - | - | - | - |
| 1778048801 | 16.11° C | 98% | 1010.4 hPa | - | - | - | - |
| 1778047901 | 16.11° C | 97% | 1010.7 hPa | - | - | - | - |
* Rain since midnight (hover to see other rain measurements)
** Current wind speed in m/s (hover to see current wind gust speed)